Stations météo

Publicité
Montelimar, France (7577): Température de l'air & dewpoint: 07.08.2020 13:00:00 - 13.08.2020 13:00:00 (CEST)Montelimar, France (7577): Température de l'air 5cm: 07.08.2020 13:00:00 - 13.08.2020 13:00:00 (CEST)Montelimar, France (7577): Température de l'air -20cm & Température de l'air -100cm: 07.08.2020 13:00:00 - 13.08.2020 13:00:00 (CEST)Montelimar, France (7577): Vitesse du vent & gusts: 07.08.2020 13:00:00 - 13.08.2020 13:00:00 (CEST)Montelimar, France (7577): Direction du vent: 07.08.2020 13:00:00 - 13.08.2020 13:00:00 (CEST)Montelimar, France (7577): reduced air pressure: 07.08.2020 13:00:00 - 13.08.2020 13:00:00 (CEST)Montelimar, France (7577): visibility: 07.08.2020 13:00:00 - 13.08.2020 13:00:00 (CEST)Montelimar, France (7577): Ensoleillement: 07.08.2020 13:00:00 - 13.08.2020 13:00:00 (CEST)Montelimar, France (7577): Quantités de précipitations: 07.08.2020 13:00:00 - 13.08.2020 13:00:00 (CEST)
Date & Time tt [°C] td [°C] tt 5cm [°C] tt -20cm [°C] tt -100cm [°C] ff [km/h] ff [knt] fx [km/h] fx [knt] dd ppp [hPa] vv [km] sd [min] rr [mm]
13.08.2020 13:00:00 - - - - - - - - - - - - - -
13.08.2020 12:00:00 - - - - - - - - - - - - - -
13.08.2020 11:00:00 - - - - - - - - - - - - - -
13.08.2020 10:00:00 - - - - - - - - - - - - - -
13.08.2020 09:00:00 - - - - - - - - - - - - - -
13.08.2020 08:00:00 - - - - - - - - - - - - - -
13.08.2020 07:00:00 - - - - - - - - - - - - - -
13.08.2020 06:00:00 - - - - - - - - - - - - - -
13.08.2020 05:00:00 - - - - - - - - - - - - - -
13.08.2020 04:00:00 - - - - - - - - - - - - - -
13.08.2020 03:00:00 - - - - - - - - - - - - - -
13.08.2020 02:00:00 - - - - - - - - - - - - - -
13.08.2020 01:00:00 - - - - - - - - - - - - - -
13.08.2020 00:00:00 - - - - - - - - - - - - - -
12.08.2020 23:00:00 - - - - - - - - - - - - - -
12.08.2020 22:00:00 - - - - - - - - - - - - - -
12.08.2020 21:00:00 - - - - - - - - - - - - - -
12.08.2020 20:00:00 - - - - - - - - - - - - - -
12.08.2020 19:00:00 - - - - - - - - - - - - - -
12.08.2020 18:00:00 - - - - - - - - - - - - - -
12.08.2020 17:00:00 - - - - - - - - - - - - - -
12.08.2020 16:00:00 - - - - - - - - - - - - - -
12.08.2020 15:00:00 - - - - - - - - - - - - - -
12.08.2020 14:00:00 - - - - - - - - - - - - - -
12.08.2020 13:00:00 - - - - - - - - - - - - - -
12.08.2020 12:00:00 - - - - - - - - - - - - - -
12.08.2020 11:00:00 28,2 18,3 32,6 27,6 25,3 10 5 20 11 SSW 1015,6 20 60 0,0
12.08.2020 10:00:00 25,6 19,9 26,2 27,7 25,3 8 4 12 6 S 1015,9 20 44 0,0
12.08.2020 09:00:00 22,6 19,0 23,9 27,9 25,3 3 1 5 3 SW 1015,8 20 32 0,0
12.08.2020 08:00:00 20,7 18,5 18,7 28,1 25,3 0 0 3 2 N 1015,8 20 38 0,0
12.08.2020 07:00:00 19,2 17,7 18,1 28,3 25,3 2 1 6 3 NE 1015,6 19 0 0,0
12.08.2020 06:00:00 19,4 17,9 18,1 28,5 25,3 2 1 5 3 NW 1015,2 20 0 0,0
12.08.2020 05:00:00 19,9 17,9 18,2 28,7 25,3 0 0 4 2 N 1015,1 20 0 0,0
12.08.2020 04:00:00 20,2 18,0 18,6 28,9 25,3 0 0 5 3 N 1015,3 20 0 0,0
12.08.2020 03:00:00 21,2 18,2 19,5 29,1 25,3 2 1 5 3 S 1015,5 20 0 0,0
12.08.2020 02:00:00 22,1 18,3 20,2 29,2 25,3 0 0 6 3 N 1015,8 20 0 0,0
12.08.2020 01:00:00 23,1 18,2 21,0 29,3 25,3 0 0 8 4 N 1015,8 20 0 0,0
12.08.2020 00:00:00 24,4 16,9 21,9 29,4 25,3 4 2 7 4 SE 1015,4 20 0 0,0
11.08.2020 23:00:00 26,0 17,4 23,3 29,5 25,3 4 2 7 4 SSW 1015,5 20 0 0,0
11.08.2020 22:00:00 27,7 16,9 25,6 29,4 25,3 0 0 21 11 N 1014,7 20 0 0,0
11.08.2020 21:00:00 29,3 17,5 28,5 29,3 25,2 12 7 28 15 S 1014,1 20 0 0,0
11.08.2020 20:00:00 31,1 19,1 31,0 29,1 25,2 16 9 30 16 S 1013,2 20 24 0,0
11.08.2020 19:00:00 32,8 17,0 34,0 28,9 25,2 16 9 38 20 S 1013,0 20 39 0,0
11.08.2020 18:00:00 35,2 15,0 39,1 28,7 25,3 16 9 31 17 S 1012,2 20 60 0,0
11.08.2020 17:00:00 36,0 12,3 41,3 28,4 25,3 10 6 21 12 S 1012,6 20 60 0,0
11.08.2020 16:00:00 35,8 12,1 39,1 28,1 25,3 6 3 18 10 S 1013,0 20 54 0,0
11.08.2020 15:00:00 34,8 11,2 39,3 28,0 25,3 11 6 21 12 S 1013,6 20 55 0,0
11.08.2020 14:00:00 33,9 11,7 39,9 27,8 25,2 9 5 16 9 SSW 1014,3 20 60 0,0
11.08.2020 13:00:00 32,3 15,3 37,6 27,8 25,2 5 3 13 7 S 1014,9 20 60 0,0
11.08.2020 12:00:00 30,1 18,8 35,4 27,9 25,3 2 1 9 5 SSE 1015,2 20 60 0,0
11.08.2020 11:00:00 26,3 17,4 31,5 28,0 25,2 3 2 8 5 N 1015,7 20 60 0,0
11.08.2020 10:00:00 23,3 18,0 27,0 28,2 25,2 5 3 10 5 N 1016,0 20 60 0,0
11.08.2020 09:00:00 21,0 18,2 23,6 28,4 25,2 2 1 6 4 NNE 1016,4 20 60 0,0
11.08.2020 08:00:00 19,2 18,2 17,7 28,7 25,2 2 1 4 2 N 1016,2 20 56 0,0
11.08.2020 07:00:00 18,1 17,1 17,5 28,9 25,2 3 1 5 3 NE 1016,0 20 0 0,0
11.08.2020 06:00:00 18,3 17,3 17,6 29,2 25,2 0 0 3 1 N 1015,7 11 0 0,2
11.08.2020 05:00:00 18,8 17,6 18,1 29,4 25,2 0 0 4 2 N 1015,5 20 0 0,0
11.08.2020 04:00:00 19,2 18,0 18,5 29,7 25,2 0 0 6 4 N 1015,4 19 0 0,0
11.08.2020 03:00:00 19,7 18,5 19,2 29,9 25,2 3 2 9 5 WSW 1015,2 16 0 0,0
11.08.2020 02:00:00 20,1 18,8 19,7 30,1 25,2 3 1 13 7 WSW 1015,1 20 0 0,0
11.08.2020 01:00:00 20,0 18,7 19,7 30,3 25,2 4 2 13 7 NE 1014,9 20 0 0,0
11.08.2020 00:00:00 20,3 18,6 19,9 30,5 25,1 0 0 8 4 N 1015,8 20 0 0,0
10.08.2020 23:00:00 20,7 18,3 19,9 30,5 25,1 3 2 16 8 NW 1016,1 20 0 0,0
10.08.2020 22:00:00 21,2 18,0 18,9 30,5 25,1 12 6 53 29 ENE 1016,2 20 0 10,1
10.08.2020 21:00:00 26,3 17,9 26,1 30,3 25,1 13 7 22 12 NNE 1016,4 20 0 0,0
10.08.2020 20:00:00 27,2 17,4 27,1 30,1 25,1 9 5 24 13 N 1014,6 20 0 0,0
10.08.2020 19:00:00 31,5 18,8 30,1 29,9 25,1 8 4 29 16 SW 1013,7 20 0 0,0
10.08.2020 18:00:00 33,3 16,6 35,1 29,6 25,1 22 12 41 22 S 1012,3 20 52 0,0
10.08.2020 17:00:00 34,5 15,9 38,5 29,3 25,1 17 9 36 19 S 1011,8 20 60 0,0
10.08.2020 16:00:00 35,1 10,9 40,6 29,0 25,1 22 12 35 19 SSW 1011,6 20 60 0,0
10.08.2020 15:00:00 34,3 14,2 39,0 28,8 25,1 16 9 29 16 S 1012,1 20 60 0,0
10.08.2020 14:00:00 33,2 13,3 38,8 28,7 25,0 16 9 27 15 SSW 1012,9 20 60 0,0
10.08.2020 13:00:00 32,5 11,1 37,8 28,7 25,1 16 9 29 16 SSW 1013,5 20 60 0,0
10.08.2020 12:00:00 31,0 13,3 36,5 28,6 25,0 16 9 27 15 S 1014,1 20 60 0,0
10.08.2020 11:00:00 28,8 15,7 33,2 28,8 25,0 13 7 21 12 S 1014,2 20 60 0,0
10.08.2020 10:00:00 26,6 18,2 30,7 28,9 25,1 10 5 16 9 S 1014,3 20 60 0,0
10.08.2020 09:00:00 23,8 16,6 25,1 29,1 25,0 3 2 6 4 S 1014,4 20 58 0,0
10.08.2020 08:00:00 20,5 15,9 17,6 29,3 25,0 0 0 5 3 N 1014,5 20 41 0,0
10.08.2020 07:00:00 18,8 15,5 16,9 29,5 25,0 0 0 3 2 N 1014,3 19 0 0,0
10.08.2020 06:00:00 19,3 15,6 17,2 29,7 25,0 0 0 3 2 N 1014,1 20 0 0,0
10.08.2020 05:00:00 20,5 16,3 18,2 29,8 25,0 0 0 4 2 N 1014,1 19 0 0,0
10.08.2020 04:00:00 21,4 16,8 20,0 30,0 25,0 0 0 5 3 N 1014,1 20 0 0,0
10.08.2020 03:00:00 22,0 16,7 20,4 30,1 25,0 0 0 5 3 N 1014,2 15 0 0,0
10.08.2020 02:00:00 21,9 15,7 20,2 30,3 24,9 0 0 5 3 N 1014,0 20 0 0,0
10.08.2020 01:00:00 23,3 15,1 20,7 30,4 25,0 3 2 6 3 SW 1014,1 20 0 0,0
10.08.2020 00:00:00 25,0 14,8 22,0 30,4 24,9 5 3 10 5 SSW 1013,9 20 0 0,0
09.08.2020 23:00:00 26,4 14,8 23,3 30,4 24,9 0 0 9 5 N 1014,3 20 0 0,0
09.08.2020 22:00:00 29,0 12,4 28,1 30,4 24,9 7 4 17 9 S 1014,2 20 0 0,0
09.08.2020 21:00:00 29,8 12,7 28,8 30,3 24,9 6 3 18 10 WSW 1013,7 20 0 0,0
09.08.2020 20:00:00 31,3 12,1 31,1 30,1 24,9 11 6 28 15 S 1013,0 20 0 0,0
09.08.2020 19:00:00 33,0 14,6 33,4 29,9 24,9 13 7 25 13 S 1012,9 20 0 0,0
09.08.2020 18:00:00 34,7 14,1 35,5 29,6 24,9 6 3 14 8 SW 1013,2 20 0 0,0
09.08.2020 17:00:00 35,8 13,9 38,3 29,2 24,9 8 5 20 11 SSW 1012,8 20 0 0,0
09.08.2020 16:00:00 36,7 12,8 40,4 28,9 24,9 10 6 24 13 SSW 1013,0 20 51 0,0
09.08.2020 15:00:00 36,0 12,9 42,0 28,7 24,8 13 7 26 14 S 1013,5 20 60 0,0
09.08.2020 14:00:00 35,1 12,1 41,6 28,5 24,8 11 6 23 12 S 1014,4 20 60 0,0
09.08.2020 13:00:00 34,1 11,9 39,8 28,5 24,8 13 7 23 13 S 1015,4 20 60 0,0
09.08.2020 12:00:00 32,4 14,1 37,7 28,5 24,8 11 6 21 11 S 1016,1 20 60 0,0
09.08.2020 11:00:00 29,2 16,4 33,9 28,6 24,8 5 3 11 6 S 1016,8 20 60 0,0
09.08.2020 10:00:00 26,1 17,2 29,9 28,8 24,8 3 1 6 4 SSE 1017,3 20 60 0,0
09.08.2020 09:00:00 23,4 16,9 25,8 28,9 24,8 2 1 4 2 ESE 1017,7 20 60 0,0
09.08.2020 08:00:00 20,8 17,2 18,0 29,2 24,8 0 0 3 1 N 1017,7 20 60 0,0
09.08.2020 07:00:00 18,9 17,0 17,1 29,3 24,8 0 0 5 3 N 1017,5 20 1 0,0
09.08.2020 06:00:00 19,7 18,0 17,2 29,5 24,8 2 1 4 2 NNW 1017,5 20 0 0,0
09.08.2020 05:00:00 20,4 18,0 18,3 29,7 24,7 2 1 5 3 E 1017,4 19 0 0,0
09.08.2020 04:00:00 21,5 18,1 19,2 29,8 24,7 0 0 8 4 N 1017,5 20 0 0,0
09.08.2020 03:00:00 22,9 19,3 22,1 29,9 24,7 6 4 13 7 S 1017,6 20 0 0,0
09.08.2020 02:00:00 23,7 19,2 23,0 30,1 24,7 7 4 19 11 S 1017,5 20 0 0,0
09.08.2020 01:00:00 24,5 18,9 23,6 30,2 24,7 9 5 18 10 SSW 1017,4 20 0 0,0
09.08.2020 00:00:00 25,5 16,4 23,1 30,2 24,7 5 3 10 6 SW 1016,9 20 0 0,0
08.08.2020 23:00:00 27,1 15,8 25,0 30,2 24,7 6 3 10 6 SW 1015,9 20 0 0,0
08.08.2020 22:00:00 27,9 12,3 23,0 30,0 24,7 4 2 9 5 WSW 1015,1 19 0 0,0
08.08.2020 21:00:00 30,7 12,1 25,6 29,9 24,7 2 1 14 7 N 1014,1 12 0 0,0
08.08.2020 20:00:00 35,3 8,2 36,2 29,6 24,7 6 4 20 11 NNE 1013,8 20 21 0,0
08.08.2020 19:00:00 36,9 8,7 41,7 29,3 24,7 12 7 23 13 NNE 1013,6 20 60 0,0
08.08.2020 18:00:00 37,7 6,6 44,0 28,9 24,7 12 6 26 14 NNE 1014,0 20 60 0,0
08.08.2020 17:00:00 37,7 9,3 44,3 28,4 24,7 16 9 25 14 NNE 1014,5 20 60 0,0
08.08.2020 16:00:00 37,2 10,5 45,0 28,1 24,7 13 7 24 13 NNE 1015,1 20 60 0,0
08.08.2020 15:00:00 36,9 11,0 43,9 27,9 24,7 5 3 24 13 WNW 1015,9 20 60 0,0
08.08.2020 14:00:00 34,9 10,7 41,2 27,7 24,6 4 2 16 8 WSW 1016,8 20 60 0,0
08.08.2020 13:00:00 32,9 12,0 39,2 27,6 24,7 5 3 13 7 S 1017,6 20 60 0,0
08.08.2020 12:00:00 30,4 10,9 35,9 27,6 24,6 6 3 12 7 S 1018,4 20 60 0,0
08.08.2020 11:00:00 27,9 16,2 32,5 27,7 24,6 3 1 10 5 S 1018,8 20 60 0,0
08.08.2020 10:00:00 25,1 14,8 28,3 27,9 24,6 4 2 8 5 E 1019,3 20 60 0,0
08.08.2020 09:00:00 21,7 15,3 24,9 28,1 24,6 0 0 6 3 N 1019,8 20 60 0,0
08.08.2020 08:00:00 18,8 13,2 15,8 28,3 24,6 0 0 4 2 N 1019,8 20 58 0,0
08.08.2020 07:00:00 17,0 14,8 14,8 28,4 24,6 2 1 5 3 NE 1019,5 20 2 0,0
08.08.2020 06:00:00 17,9 16,4 15,2 28,7 24,6 0 0 3 1 N 1019,2 20 0 0,0
08.08.2020 05:00:00 19,1 16,3 15,9 28,8 24,6 0 0 6 3 N 1019,3 20 0 0,0
08.08.2020 04:00:00 20,4 17,2 17,0 29,0 24,6 3 2 6 3 SW 1019,5 20 0 0,0
08.08.2020 03:00:00 21,5 16,7 20,3 29,1 24,6 4 2 9 5 S 1019,8 20 0 0,0
08.08.2020 02:00:00 21,6 14,5 19,2 29,2 24,7 5 3 10 5 S 1019,8 20 0 0,0
08.08.2020 01:00:00 22,9 13,7 20,8 29,3 24,6 3 2 8 4 SSW 1019,6 20 0 0,0
08.08.2020 00:00:00 24,1 13,0 22,4 29,3 24,6 5 3 8 4 SSW 1019,2 20 0 0,0
07.08.2020 23:00:00 25,6 11,7 23,6 29,3 24,6 5 3 9 5 S 1018,4 20 0 0,0
07.08.2020 22:00:00 27,3 10,9 25,2 29,1 24,6 5 3 16 9 SSW 1017,4 20 0 0,0
07.08.2020 21:00:00 29,8 10,4 28,8 28,9 24,6 11 6 30 16 SSW 1016,3 20 20 0,0
07.08.2020 20:00:00 32,4 12,6 33,5 28,6 24,6 16 9 30 16 S 1015,4 20 20 0,0
07.08.2020 19:00:00 35,4 11,1 38,7 28,2 24,6 14 8 24 13 SSW 1014,8 17 60 0,0
07.08.2020 18:00:00 36,2 10,4 41,1 27,8 24,6 13 7 22 12 S 1014,9 20 60 0,0
07.08.2020 17:00:00 36,4 9,8 42,7 27,4 24,6 11 6 20 11 S 1015,3 20 60 0,0
07.08.2020 16:00:00 35,7 10,7 42,4 27,0 24,6 10 5 21 11 SSW 1015,8 20 60 0,0
07.08.2020 15:00:00 35,1 10,2 41,4 26,7 24,6 9 5 20 11 SSW 1016,5 20 60 0,0
07.08.2020 14:00:00 33,9 11,1 39,8 26,6 24,6 8 5 20 11 S 1017,0 20 60 0,0
07.08.2020 13:00:00 31,9 10,6 37,7 26,5 24,6 10 6 18 10 SSW 1017,5 20 60 0,0

tt = Température de l'air
td = dewpoint
tt 5cm = Température de l'air 5cm
tt -20cm = Température de l'air -20cm
tt -100cm = Température de l'air -100cm
ff = Vitesse du vent
fx = gusts
dd = Direction du vent
ppp = reduced air pressure
vv = visibility
sd = Ensoleillement
rr = Quantités de précipitations

stations d'obs. à proximité